Volver al catálogo

SL-14 DEB

ActivoPO
NORAD 26000·DEBRIS·🇷🇺 Russia

Lanzado Sep 28, 1991 desde Plesetsk Cosmodrome

Loading…

Próximos Pases (próximas 24 horas)

TLE

ActualizadoSource: Space-Track

Época: Sep 14, 2026, 11:26 UTC

1 26000U 91068K   26257.47671100  .00000059  00000-0  34081-3 0  9993
2 26000  82.7170 256.1331 0040531 288.3990 226.8400 12.45467020214851

Sigue SL-14 DEB en tiempo real con AllMySat

Download on the App Store